www.pogodaiklimat.ru

Погода и климат >> Архив погоды >> Испания >> Гвадалахара


ПОГОДА в Гвадалахаре

  • Прогноз погоды в Гвадалахаре
  • Монитор погоды в Гвадалахаре

АРХИВ ПОГОДЫ в Гвадалахаре

Время (UTC), дата Ветер
(напр.,м/с)
 
Видим.   Явления Облачность Т
(С)
Тd
(С)
f
(%)
Тe
(С)
Тes
(С)
Комфортность P
(гПа)
Po
(гПа)
Тmin
(С)
Tmax
(С)
R
(мм)
R24
(мм)
S
(см)
13 10.09 С 5 20 км н/о +19.1 +1.6 31 +19 +19 1013.2 931.8
14 10.09 С 5 20 км н/о +18.6 +2.8 35 +18 +18 1013.3 931.8
15 10.09 С 5 20 км н/о +17.1 +3.0 39 +16 +16 1014.4 932.4
16 10.09 С 5 20 км н/о +14.6 +4.0 49 +13 +13 1015.9 933.1
17 10.09 С 4 20 км н/о +15.1 +4.5 49 +14 +14 1015.6 933.0
18 10.09 С 4 20 км н/о +15.2 +5.7 53 +14 +14 1015.7 933.1 +19.9
19 10.09 С 3 20 км н/о +14.9 +6.5 57 +14 +14 1016.2 933.5
20 10.09 С 3 20 км н/о +14.6 +5.7 55 +14 +14 1016.8 934.0
21 10.09 С 3 20 км н/о +14.1 +5.4 56 +13 +13 1017.4 934.4
22 10.09 С 3 20 км н/о +13.6 +5.0 56 +13 +13 1018.1 934.9
23 10.09 С 2 20 км н/о +13.0 +4.7 57 +12 +12 1018.3 934.9
00 11.09 СВ 2 20 км н/о +12.4 +4.8 60 +12 +12 1018.6 935.0
01 11.09 СВ 2 20 км н/о +11.6 +4.6 62 +11 +11 1019.4 935.5
02 11.09 Ю 1 20 км н/о +10.8 +4.5 65 +12 +12 1019.0 934.9
03 11.09 В 1 20 км н/о +10.6 +4.3 65 +10 +10 1019.0 934.9
04 11.09 СВ 1 20 км н/о +11.2 +4.6 64 +11 +11 1019.6 935.6
05 11.09 СВ 3 20 км н/о +12.6 +5.5 62 +12 +12 1019.3 935.7
06 11.09 СВ 3 20 км 1/1 1500 м
[Cu hum]
+12.2 +6.0 66 +11 +11 1019.5 935.8 +10.4
07 11.09 СВ 3 20 км н/о +13.8 +6.6 62 +13 +13 1019.5 936.3
08 11.09 СВ 6 20 км н/о +16.7 +6.2 50 +16 +16 1018.9 936.5
09 11.09 СВ 7 20 км 1/0
[Ci fib]
+18.4 +6.2 45 +18 +20 1019.1 937.1
10 11.09 СВ 9 20 км н/о +20.0 +5.2 38 +20 +20 1019.0 937.5
11 11.09 СВ 6 20 км н/о +20.7 +5.1 36 +21 +21 комфорт 1019.4 938.0
12 11.09 СВ 6 20 км 4/0
[Ac lent Ci]
+22.3 +5.7 34 +23 +27 комфорт 1018.6 937.7
13 11.09 СВ 7 20 км н/о +23.4 +5.8 32 +24 +24 комфорт 1018.1 937.5
14 11.09 СВ 5 20 км н/о +23.8 +5.6 31 +24 +24 комфорт 1017.9 937.4
15 11.09 В 7 20 км н/о +25.3 +5.5 28 +25 +25 комфорт 1017.4 937.4
16 11.09 СВ 6 20 км н/о +24.7 +5.5 29 +24 +24 комфорт 1017.6 937.4
17 11.09 СВ 5 20 км н/о +24.1 +5.4 30 +24 +24 комфорт 1018.3 937.9
18 11.09 СВ 5 20 км н/о +22.9 +5.3 32 +23 +23 комфорт 1019.6 938.8 +25.6
19 11.09 В 6 20 км н/о +22.0 +5.4 34 +22 +22 комфорт 1021.0 939.8
20 11.09 СВ 3 20 км н/о +20.3 +5.5 38 +21 +21 комфорт 1022.4 940.7
21 11.09 СВ 4 20 км н/о +18.7 +6.2 44 +19 +19 1023.5 941.3
22 11.09 СВ 4 20 км н/о +17.3 +7.1 51 +17 +17 1024.0 941.4
23 11.09 СВ 5 20 км н/о +16.4 +7.1 54 +16 +16 1024.3 941.4
00 12.09 В 4 20 км н/о +15.3 +6.3 55 +15 +15 1025.2 941.9
01 12.09 В 2 20 км н/о +14.9 +6.7 58 +15 +15 1025.4 942.0
02 12.09 СВ 4 20 км н/о +14.6 +6.7 59 +13 +13 1025.7 942.2
03 12.09 СВ 2 20 км н/о +14.3 +6.6 60 +14 +14 1025.5 941.9
04 12.09 СВ 2 20 км н/о +13.7 +6.8 63 +13 +13 1025.6 941.8
05 12.09 СВ 3 20 км н/о +14.2 +6.5 60 +13 +13 1025.6 942.0
06 12.09 С 1 20 км н/о +13.8 +6.6 62 +15 +15 1026.0 942.2 +13.6
07 12.09 СВ 2 20 км н/о +14.8 +7.1 60 +15 +15 1026.1 942.6
08 12.09 СВ 3 20 км н/о +17.8 +8.1 53 +18 +18 1025.5 942.9
09 12.09 СВ 6 20 км н/о +21.3 +8.9 45 +23 +23 комфорт 1025.1 943.5
10 12.09 В 7 20 км н/о +23.6 +8.8 39 +24 +24 комфорт 1024.6 943.6
11 12.09 В 7 20 км н/о +25.0 +9.3 37 +26 +26 жарко 1023.4 942.9
12 12.09 В 5 20 км н/о +26.8 +9.6 34 +27 +27 жарко 1022.6 942.6
13 12.09 ЮВ 5 20 км н/о +27.6 +9.9 33 +28 +28 жарко 1021.8 942.1
14 12.09 В 6 20 км н/о +27.7 +9.5 32 +28 +28 жарко 1021.2 941.6
15 12.09 В 4 20 км н/о +28.4 +9.6 31 +28 +28 жарко 1021.2 941.7
16 12.09 В 5 20 км н/о +26.9 +9.3 33 +27 +27 жарко 1021.5 941.6
17 12.09 В 4 20 км н/о +27.4 +9.7 33 +28 +28 жарко 1021.3 941.6
18 12.09 В 3 20 км н/о +26.0 +9.3 35 +26 +26 жарко 1021.3 941.2 +28.9
19 12.09 В 3 20 км н/о +24.3 +9.1 38 +25 +25 комфорт 1022.2 941.6
20 12.09 В 4 20 км н/о +22.9 +8.9 41 +24 +24 комфорт 1023.4 942.3
21 12.09 В 5 20 км н/о +22.4 +8.5 41 +24 +24 комфорт 1024.2 942.9
22 12.09 СВ 2 20 км н/о +21.4 +8.3 43 +23 +23 комфорт 1024.4 942.9
23 12.09 СВ 1 20 км н/о +19.7 +8.7 49 +22 +22 комфорт 1025.3 943.2
00 13.09 В 2 20 км н/о +17.7 +8.0 53 +18 +18 1026.0 943.3
01 13.09 В 1 20 км н/о +16.8 +8.0 56 +18 +18 1025.8 942.9
02 13.09 СВ 2 20 км н/о +18.0 +8.0 52 +19 +19 1024.5 942.0
03 13.09 СВ 3 20 км н/о +17.7 +8.0 53 +18 +18 1024.5 942.0
04 13.09 СВ 4 20 км н/о +16.8 +8.0 56 +16 +16 1024.4 941.6
05 13.09 В 4 20 км н/о +16.3 +7.8 57 +16 +16 1024.4 941.5
06 13.09 СВ 3 20 км н/о +16.0 +8.2 60 +16 +16 1024.7 941.7 +15.5
07 13.09 С 2 20 км н/о +16.8 +8.2 57 +17 +17 1023.9 941.2
08 13.09 СВ 5 20 км н/о +19.7 +8.1 47 +21 +21 комфорт 1022.7 940.8
09 13.09 В 5 20 км н/о +21.0 +6.5 39 +22 +22 комфорт 1023.2 941.6
10 13.09 В 7 19 км слаб. дождь н/о +21.3 +7.5 41 +22 +22 комфорт 1022.5 941.1 0.0
11 13.09 В 8 12 км слаб. дождь н/о +19.0 +10.5 58 +19 +19 1023.4 941.4 0.0
12 13.09 В 6 14 км слаб. дождь н/о +18.1 +11.2 64 +18 +18 1024.6 942.2 0.2
13 13.09 ЮВ 5 8000 м слаб. дождь н/о +17.3 +11.8 70 +17 +17 1025.4 942.8 0.0
14 13.09 В 2 17 км слаб. дождь н/о +16.4 +13.1 81 +16 +16 1025.0 942.2 0.2
15 13.09 СВ 3 20 км в посл. час дождь н/о +17.7 +14.0 79 +18 +18 1023.5 941.2 0.6
16 13.09 СВ 5 20 км н/о +19.2 +13.4 69 +20 +20 1022.4 940.6 0.2
17 13.09 СВ 2 20 км н/о +19.2 +14.0 72 +21 +21 комфорт 1022.6 940.8
18 13.09 СВ 1 20 км дымка н/о +19.2 +14.7 75 +22 +22 комфорт 1022.1 940.3 +22.1 0.2
19 13.09 СВ 2 20 км н/о +18.4 +13.7 74 +20 +20 1022.2 940.2 0.2
20 13.09 СВ 2 20 км н/о +17.8 +13.5 76 +18 +18 1023.1 940.8
21 13.09 СВ 3 20 км н/о +18.0 +12.9 72 +18 +18 1023.7 941.4 0.2
22 13.09 СВ 3 20 км н/о +17.6 +13.1 75 +18 +18 1024.0 941.6
23 13.09 СВ 2 20 км н/о +17.5 +13.2 76 +18 +18 1024.0 941.6
00 14.09 СВ 2 20 км дымка н/о +16.8 +12.9 78 +17 +17 1023.6 941.0
01 14.09 СВ 2 20 км н/о +16.9 +12.8 77 +17 +17 1022.9 940.4
02 14.09 СВ 1 20 км н/о +16.0 +12.5 80 +17 +17 1022.7 940.0 0.2
03 14.09 СВ 1 20 км н/о +15.9 +12.8 82 +17 +17 1023.0 940.2 0.2
04 14.09 СВ 3 20 км н/о +16.9 +12.4 75 +17 +17 1022.2 939.7
05 14.09 СВ 2 20 км н/о +15.9 +12.1 78 +16 +16 1022.5 939.7
06 14.09 СВ 3 20 км дымка н/о +15.9 +11.3 74 +15 +15 1022.7 939.9 +15.5
07 14.09 СВ 4 20 км н/о +16.4 +11.8 74 +16 +16 1022.4 939.8
08 14.09 СВ 2 20 км н/о +17.6 +12.1 70 +18 +18 1022.5 940.2
09 14.09 СВ 2 20 км н/о +20.7 +11.6 56 +24 +24 комфорт 1021.4 940.0
10 14.09 С 2 20 км н/о +22.7 +11.4 49 +25 +25 комфорт 1020.4 939.6
11 14.09 ЮЗ 3 20 км н/о +23.0 +10.8 46 +25 +25 комфорт 1021.1 940.3
12 14.09 Ю 4 20 км н/о +20.2 +11.9 59 +22 +22 комфорт 1022.4 940.8
13 14.09 С 2 20 км слаб. дождь н/о +18.6 +13.9 74 +20 +20 1021.2 939.3 0.0
14 14.09 ЮЗ 4 11 км дождь н/о +18.0 +14.3 79 +18 +18 1022.2 940.1 0.0
15 14.09 СВ 3 4300 м дождь н/о +16.0 +14.4 90 +16 +16 1020.9 938.4 3
16 14.09 СЗ 2 4400 м дождь н/о +15.8 +14.5 92 +16 +16 1022.3 939.6 1
17 14.09 СВ 4 20 км в посл. час дождь н/о +16.3 +14.5 89 +16 +16 1020.8 938.4 1
18 14.09 СВ 2 20 км дымка н/о +16.5 +14.5 88 +17 +17 1020.8 938.4 +23.9 2
19 14.09 СВ 1 20 км н/о +16.7 +14.7 88 +18 +18 1020.7 938.4
20 14.09 СЗ 2 20 км н/о +16.8 +15.0 89 +17 +17 1020.9 938.6
21 14.09 С 2 20 км н/о +16.7 +14.7 88 +17 +17 1020.6 938.3
22 14.09 С 1 20 км н/о +16.2 +14.7 91 +18 +18 1021.0 938.5
23 14.09 С 1 20 км н/о +16.2 +14.7 91 +18 +18 1020.6 938.2
00 15.09 С 1 20 км н/о +17.0 +14.1 83 +19 +19 1020.2 938.0
01 15.09 СВ 1 20 км н/о +16.6 +14.1 85 +17 +17 1019.9 937.6
02 15.09 СВ 1 20 км н/о +16.7 +13.6 82 +18 +18 1020.0 937.7 0.2
03 15.09 В 2 15 км слаб. морось н/о +17.2 +12.3 73 +18 +18 1019.6 937.4 0.2
04 15.09 В 3 20 км в посл. час дождь н/о +17.4 +12.3 72 +17 +17 1018.7 936.7 0.0
05 15.09 С 1 20 км н/о +17.1 +12.6 75 +18 +18 1019.0 936.9
06 15.09 В 1 20 км дымка н/о +16.8 +13.5 81 +18 +18 1019.2 937.0 +16.0 0.0
07 15.09 С 2 20 км н/о +17.5 +13.2 76 +18 +18 1018.8 936.8
08 15.09 В 5 19 км в посл. час дождь н/о +18.2 +12.9 71 +18 +18 1019.3 937.4 0.0
09 15.09 ЮВ 2 20 км в посл. час дождь {морось} н/о +18.7 +14.0 74 +20 +20 1019.0 937.3 0.0
10 15.09 В 5 20 км н/о +20.8 +14.4 67 +24 +24 комфорт 1018.5 937.4
11 15.09 С 3 20 км н/о +20.4 +15.2 72 +24 +24 комфорт 1018.2 937.1
12 15.09 Ю 4 20 км дымка н/о +22.1 +15.7 67 +26 +26 душно 1016.7 936.2
13 15.09 ЮЗ 1 11 км слаб. дождь н/о +20.9 +17.1 79 +26 +26 душно 1016.5 935.7 0.0
14 15.09 Ю 3 8000 м слаб. дождь н/о +15.9 +15.1 95 +16 +16 1019.1 936.7 18
15 15.09 В 3 15 км слаб. дождь н/о +17.4 +16.4 94 +17 +17 1017.7 935.9 20
16 15.09 В 2 20 км н/о +19.8 +15.6 77 +23 +23 комфорт 1017.3 936.1
17 15.09 СВ 3 15 км слаб. дождь н/о +18.4 +15.3 82 +19 +19 1017.5 935.9 0.4
18 15.09 ЮВ 3 20 км слаб. морось {дождь} н/о +17.3 +15.3 88 +17 +17 1017.7 935.8 +22.2 1
19 15.09 СВ 1 20 км н/о +17.3 +15.1 87 +18 +18 1018.0 936.1
20 15.09 В 2 20 км н/о +17.0 +15.3 90 +18 +18 1018.8 936.7
21 15.09 В 1 20 км в посл. час дождь н/о +16.9 +15.4 91 +18 +18 1018.8 936.7 0.0
22 15.09 СВ 2 20 км в посл. час дождь н/о +16.9 +15.2 90 +17 +17 1019.1 937.0 0.0
23 15.09 ЮВ 5 20 км слаб. дождь н/о +16.8 +15.0 89 +16 +16 1018.9 936.8 0.0
00 16.09 С 1 20 км в посл. час дождь н/о +16.8 +15.0 89 +18 +18 1019.3 937.1 0.0
01 16.09 СВ 1 20 км н/о +16.6 +15.0 90 +17 +17 1019.1 936.9
02 16.09 СВ 1 20 км слаб. дождь н/о +16.5 +14.9 90 +17 +17 1018.4 936.2 0.0
03 16.09 С 1 13 км слаб. дождь н/о +16.6 +15.1 91 +17 +17 1018.1 936.0 0.2
04 16.09 В 2 14 км слаб. морось н/о +16.3 +15.7 96 +16 +16 1018.0 935.8 2
05 16.09 В 1 н/о слаб. дождь н/о +16.2 +15.4 95 +17 +17 1018.3 936.1 1
06 16.09 В 2 14 км слаб. дождь {морось} 10/8 300 м
[Cu Sc Ac As]
+15.9 +15.3 96 +16 +16 1018.4 936.1 +15.9 4
07 16.09 С 1 20 км в посл. час дождь н/о +16.1 +15.0 93 +17 +17 1018.5 936.2 0.2
08 16.09 СВ 1 20 км в посл. час морось н/о +16.9 +15.6 92 +18 +18 1018.7 936.6 0.0
09 16.09 СВ 1 20 км {дождь, морось} 8/4 1500 м
[Cu Sc Ac und]
+18.5 +15.6 83 +20 +22 1018.6 937.0 0.2
10 16.09 С 2 19 км н/о +20.7 +16.5 77 +25 +25 комфорт 1018.0 937.0
11 16.09 СЗ 1 20 км н/о +22.6 +15.7 65 +27 +27 душно 1017.4 936.9
12 16.09 С 1 20 км 4/4 1500 м
[Cu hum]
+23.4 +15.2 60 +28 +37 душно 1016.7 936.5
13 16.09 З 1 20 км н/о +24.4 +15.3 57 +27 +27 жарко 1015.9 936.0
14 16.09 ЮЗ 2 20 км н/о +25.2 +15.2 54 +28 +28 жарко 1014.8 935.2
15 16.09 З 3 20 км н/о +26.1 +15.5 52 +29 +29 жарко 1014.2 934.9
16 16.09 З 3 20 км н/о +25.7 +14.8 51 +28 +28 жарко 1014.2 934.8
17 16.09 З 3 20 км н/о +25.4 +14.2 50 +28 +28 жарко 1014.3 934.8 0.2
18 16.09 З 1 20 км дымка н/о +23.7 +13.3 52 +26 +26 жарко 1015.1 935.0 +26.2 0.2
19 16.09 Ю 2 20 км н/о +21.6 +14.7 65 +25 +25 комфорт 1016.2 935.5
20 16.09 Ю 1 20 км н/о +19.7 +15.3 76 +23 +23 комфорт 1016.8 935.6
21 16.09 ЮВ 1 20 км н/о +18.6 +15.1 80 +20 +20 1017.3 935.8
22 16.09 С 1 20 км н/о +17.9 +14.8 82 +20 +20 1018.0 936.2
23 16.09 З 1 20 км н/о +17.3 +14.8 85 +19 +19 1017.9 936.0
00 17.09 СВ 1 20 км н/о +16.8 +14.3 85 +18 +18 1018.0 935.9
01 17.09 СВ 2 20 км н/о +16.3 +14.0 86 +17 +17 1017.9 935.7
02 17.09 штиль 0 20 км н/о +15.9 +13.9 88 +16 +16 1017.7 935.4
03 17.09 СВ 1 19 км н/о +15.2 +13.6 90 +16 +16 1017.8 935.3
04 17.09 СВ 2 19 км н/о +14.8 +13.3 91 +15 +15 1017.5 934.9
05 17.09 СВ 1 19 км н/о +14.6 +13.3 92 +15 +15 1017.5 934.8
06 17.09 СВ 1 19 км н/о +14.6 +13.6 94 +16 +16 1017.7 935.0 +14.5
07 17.09 С 1 20 км н/о +15.7 +14.1 90 +17 +17 1017.7 935.3
08 17.09 СВ 2 20 км н/о +17.8 +14.5 81 +19 +19 1017.4 935.6
09 17.09 С 1 20 км н/о +19.8 +15.4 76 +23 +23 комфорт 1017.0 935.8
10 17.09 С 2 19 км н/о +22.3 +16.3 69 +27 +27 душно 1015.9 935.5
11 17.09 СВ 1 20 км н/о +25.7 +14.8 51 +28 +28 жарко 1014.2 934.8

 

Местоположение метеостанции Гвадалахара (Испания): широта 40.63 долгота -3.15 высота над уровнем моря 724 м.

В архиве по умолчанию представлена погода в Гвадалахаре за последнюю неделю. Архивные данные за месяц целиком и за предыдущие месяцы, начиная с января 2011 года, Вы можете получить, выбрав интересующий диапазон дат из раскрывающегося списка и нажав кнопку "Ввод!".


*Определитесь, кто Вы:
робот инопланетянин человек

Внимание! Время в таблицах - всемирное. Для получения местного времени необходимо прибавить поправку, которая равна 1 ч.

Смотрите также архив погоды в соседних городах и на ближайших метеорологических станциях:

Погода в Мадриде (Испания) (39 км)
Погода в Мадриде Буэн-Ретиро (Испания) (51 км)
Погода в Мадриде университет (Испания) (52 км)
Погода в Мадриде Кольменар (Испания) (53 км)
Погода в Буитраго (Испания) (57 км)
Погода в Мадрид аэропорту (Испания) (61 км)
Погода в Сомосьерре (Испания) (67 км)
Погода в Сигуэнсе (Испания) (68 км)
Погода в Ла Пинилья - Эстасьон (Испания) (68 км)
Погода в Таранконе (Испания) (70 км)

Пояснения к столбцам:

Ветер - указаны скорость ветра в м/с - средняя за 10 мин, порывы в срок и между сроками (в фигурных скобках) и направление, откуда дует ветер: С - северный, СВ - северо-восточный, В - восточный, ЮВ - юго-восточный, Ю - южный, ЮЗ - юго-западный, З - западный, СЗ - северо-западный.
Видимость - горизонтальная дальность видимости в метрах или километрах. При видимости от 1 до 10 км при отсутствии осадков обычно наблюдается дымка, при ухудшении видимости до 1 км и менее - туман. В сухую погоду видимость может ухудшаться дымом, пылью или мглою.
Явления - указаны атмосферные явления, наблюдавшиеся в срок или в последний час перед сроком; фигурными скобками обозначены явления, наблюдавшиеся между сроками (за 1-3 часа до срока); квадратными скобками обозначены град или гололедные отложения с указанием их диаметра в мм.
Облачность - указаны через наклонную черту общая и нижняя облачность в баллах и высота нижней границы облаков в метрах; квадратными скобками обозначены формы облаков: Ci - перистые, Cs - перисто-слоистые, Cc - перисто-кучевые, Ac - высококучевые, As - высокослоистые, Sc - слоисто-кучевые, Ns - слоисто-дождевые, Cu - кучевые, Cb - кучево-дождевые. Подробнее классификацию облаков см. в Атласе облаков (PDF).
T - Температура воздуха - температура, измеренная на высоте 2 м над землей.
Td - Температура точки росы - температура, при понижении до которой содержащийся в воздухе водяной пар достигнет насыщения.
f - Относительная влажность воздуха - влажноcть воздуха, измеренная на высоте 2 м над землей.
Te - Эффективная температура - температура, которую ощущает одетый по сезону человек в тени. Характеристика душности погоды. При расчете учитывается влияние влажности воздуха и скорости ветра на теплоощущения человека.
Tes - Эффективная температура на солнце - температура, которую ощущает человек, с поправкой на солнечный нагрев. Характеристика знойности погоды. Зависит от высоты солнца над горизонтом, облачности и скорости ветра. Ночью, в пасмурную погоду, а также при ветре 12 м/с и более поправка равна нулю.
P - Атмосферное давление - приведенное к уровню моря атмосферное давление.
Po - Атмосферное давление - измеренное на уровне метеостанции атмосферное давление.
Tmin - Минимальная температура - минимум температуры воздуха на высоте 2 м над землей.
Tmax - Максимальная температура - максимум температуры воздуха на высоте 2 м над землей.
R - Количество осадков - Количество выпавших осадков за период времени, мм. При наведении курсора мыши на число - период времени, за который выпало указанное количество осадков.
R24 - Количество осадков - Количество выпавших осадков за 24 часа, мм.
S - Снежный покров - Высота снежного покрова, см. При наведении курсора мыши на число - состояние снежного покрова и степень покрытия местности в баллах.